Date_and_time,latitude,longitude,wind_speed,RelWindDirFrom,WindDirFrom,air_pressure,air_temperature,relative_humidity,Temp,platform_speed_wrt_ground,air_pressure_at_mean_sea_level,platform_orientation
2019-10-24 23:40,50.630425,-96.9807566666667,6.6,7.8,168,994.68,2.1,62,5.49,0.0,1022.44,131.7
2019-10-24 23:50,50.6304366666667,-96.9807433333333,5.4,6.4,169,994.61,2.1,65,5.48,0.0,1022.39,131.7
2019-10-25 00:00,50.6304333333333,-96.980745,5.7,6.7,164,994.42,2.0,62,5.47,0.0,1022.20,90.0
2019-10-25 00:10,50.630435,-96.9807533333333,6.5,7.8,162,994.26,2.0,63,5.47,0.0,1022.03,90.0
2019-10-25 00:20,50.63044,-96.9807516666667,6.8,8.1,169,994.16,1.9,64,5.45,0.0,1021.93,90.0
2019-10-25 00:30,50.63044,-96.9807583333333,6.9,8.3,170,994.14,1.8,64,5.44,0.0,1021.94,90.0
2019-10-25 00:40,50.6304383333333,-96.98076,7.5,8.8,170,994.13,1.6,66,5.43,0.0,1021.93,90.0
2019-10-25 00:50,50.630405,-96.9807683333333,7.0,8.6,177,994.15,1.4,66,5.43,0.0,1021.96,90.0
2019-10-25 01:00,50.6304383333333,-96.980755,5.5,7.2,180,994.12,1.3,66,5.43,0.0,1021.96,360.0
2019-10-25 01:10,50.630435,-96.9807616666667,6.8,8.9,172,993.94,1.3,66,5.42,0.0,1021.78,360.0
2019-10-25 01:20,50.6304366666667,-96.9807616666667,7.9,9.3,168,993.79,1.3,66,5.41,0.0,1021.63,360.0
2019-10-25 01:30,50.63044,-96.9807616666667,7.4,9.1,162,993.58,1.2,69,5.41,0.0,1021.44,360.0
2019-10-25 01:40,50.6304383333333,-96.9807633333333,8.3,9.8,163,993.33,1.4,71,5.41,0.0,1021.16,360.0
2019-10-25 01:50,50.6304466666667,-96.9807566666667,8.6,10.0,169,993.18,1.4,71,5.39,0.0,1021.02,360.0
2019-10-25 02:00,50.6304433333333,-96.9807516666667,7.8,10.0,171,993.08,1.3,73,5.38,0.0,1020.92,39.5
2019-10-25 02:10,50.63044,-96.980755,8.1,11.0,174,993.06,1.0,71,5.37,0.0,1020.92,39.5
2019-10-25 02:20,50.6304383333333,-96.9807583333333,9.5,11.5,171,993.07,0.9,68,5.36,0.0,1020.94,39.5
2019-10-25 02:30,50.6304366666667,-96.9807583333333,8.0,10.2,174,993.08,0.9,69,5.35,0.0,1020.96,39.5
2019-10-25 02:40,50.6304216666667,-96.9807566666667,8.2,11.0,176,993.05,0.9,68,5.33,0.0,1020.94,39.5
2019-10-25 02:50,50.63039,-96.9807783333333,9.6,12.1,178,992.90,1.0,68,5.32,0.0,1020.78,39.5
2019-10-25 03:00,50.6304283333333,-96.980765,9.7,11.8,177,992.81,0.9,69,5.31,0.0,1020.70,246.4
2019-10-25 03:10,50.63043,-96.980765,10.7,13.5,177,992.70,0.9,68,5.30,0.0,1020.58,246.4
2019-10-25 03:20,50.6304283333333,-96.980765,10.7,13.1,176,992.57,0.9,69,5.29,0.0,1020.46,246.4
2019-10-25 03:30,50.6304266666667,-96.980765,9.8,13.0,178,992.59,0.8,70,5.28,0.0,1020.47,246.4
2019-10-25 03:40,50.6304266666667,-96.980765,9.9,12.8,176,992.50,0.8,70,5.28,0.0,1020.38,246.4
2019-10-25 03:50,50.63043,-96.9807716666667,8.6,10.6,176,992.32,0.7,71,5.27,0.0,1020.21,246.4
2019-10-25 04:00,50.630425,-96.980765,9.1,11.1,174,992.12,0.6,70,5.25,0.0,1020.02,203.5
2019-10-25 04:10,50.63046,-96.980755,8.9,10.9,176,992.01,0.7,70,5.25,0.0,1019.91,203.5
2019-10-25 04:20,50.63043,-96.98078,8.9,11.3,172,991.80,0.8,69,5.23,0.0,1019.69,203.5
2019-10-25 04:30,50.63043,-96.9807783333333,9.0,10.9,169,991.70,0.8,69,5.22,0.0,1019.59,203.5
2019-10-25 04:40,50.6304283333333,-96.9807633333333,9.3,11.0,165,991.51,0.8,70,5.23,0.0,1019.38,203.5
2019-10-25 04:50,50.630425,-96.980745,9.8,11.5,164,991.21,0.9,70,5.22,0.0,1019.08,203.5
2019-10-25 05:00,50.6304316666667,-96.9807566666667,9.6,11.5,167,991.07,0.9,70,5.22,0.0,1018.92,221.3
2019-10-25 05:10,50.6304333333333,-96.980755,8.6,10.6,172,990.94,1.0,71,5.21,0.0,1018.78,221.3
2019-10-25 05:20,50.6304316666667,-96.980755,8.3,11.0,173,990.78,1.3,71,5.19,0.0,1018.62,221.3
2019-10-25 05:30,50.630435,-96.9807733333333,9.2,12.3,168,990.60,1.4,71,5.17,0.0,1018.43,221.3
2019-10-25 05:40,50.6304333333333,-96.9807633333333,9.6,11.7,166,990.38,1.4,72,5.15,0.0,1018.21,221.3
2019-10-25 05:50,50.6304233333333,-96.9807616666667,10.3,12.6,166,990.18,1.4,72,5.15,0.0,1018.00,221.3
2019-10-25 06:00,50.6304233333333,-96.9807566666667,10.8,13.7,168,990.03,1.5,71,5.14,0.0,1017.84,90.0
2019-10-25 06:10,50.630415,-96.9807933333333,10.9,14.1,168,989.86,1.7,72,5.13,0.0,1017.66,90.0
2019-10-25 06:20,50.63043,-96.9807716666667,10.8,13.4,168,989.69,1.6,73,5.12,0.0,1017.48,90.0
2019-10-25 06:30,50.6304233333333,-96.9807666666667,10.4,14.0,171,989.57,1.7,74,5.11,0.0,1017.36,90.0
2019-10-25 06:40,50.6304283333333,-96.9807633333333,11.8,15.2,176,989.33,1.7,74,5.10,0.0,1017.10,90.0
2019-10-25 06:50,50.63043,-96.98076,11.2,15.2,178,989.14,1.8,75,5.10,0.0,1016.90,90.0
2019-10-25 07:00,50.6304216666667,-96.9807533333333,11.3,14.8,181,988.99,1.8,76,5.09,0.0,1016.74,125.3
2019-10-25 07:10,50.6304416666667,-96.98075,11.3,14.1,182,988.94,1.7,77,5.08,0.0,1016.68,125.3
2019-10-25 07:20,50.6304266666667,-96.9807566666667,11.9,15.1,181,988.76,1.7,78,5.07,0.0,1016.49,125.3
2019-10-25 07:30,50.630425,-96.980765,11.9,16.8,180,988.52,1.8,79,5.07,0.0,1016.24,125.3
2019-10-25 07:40,50.6304233333333,-96.980755,11.9,15.5,181,988.45,1.8,80,5.05,0.0,1016.16,125.3
2019-10-25 07:50,50.6304216666667,-96.980755,11.3,15.2,179,988.35,1.9,81,5.05,0.0,1016.05,125.3
2019-10-25 08:00,50.63042,-96.9807566666667,10.9,14.0,179,988.26,1.9,82,5.05,0.0,1015.95,360.0
2019-10-25 08:10,50.6304216666667,-96.9807566666667,10.6,13.9,179,988.10,1.9,83,5.04,0.0,1015.79,360.0
2019-10-25 08:20,50.6304216666667,-96.9807583333333,10.7,13.5,180,987.93,1.9,83,5.04,0.0,1015.62,360.0
2019-10-25 08:30,50.6304233333333,-96.9807583333333,10.7,13.6,180,987.82,1.7,85,5.03,0.0,1015.50,360.0
2019-10-25 08:40,50.630425,-96.9807583333333,10.2,13.7,179,987.54,1.6,86,5.04,0.0,1015.22,360.0
2019-10-25 08:50,50.6304266666667,-96.9807583333333,10.7,13.7,178,987.29,1.5,88,5.04,0.0,1014.96,360.0
2019-10-25 09:00,50.6304266666667,-96.98076,11.2,13.5,176,987.19,1.4,89,5.03,0.0,1014.87,90.0
2019-10-25 09:10,50.6304266666667,-96.9807616666667,11.2,14.2,175,986.99,1.4,89,5.03,0.0,1014.67,90.0
2019-10-25 09:20,50.6304283333333,-96.9807633333333,11.7,15.4,175,986.71,1.3,90,5.03,0.0,1014.39,90.0
2019-10-25 09:30,50.6304283333333,-96.9807633333333,10.5,12.9,177,986.48,1.4,91,5.02,0.0,1014.14,90.0
2019-10-25 09:40,50.6304283333333,-96.9807616666667,10.2,13.2,177,986.21,1.4,91,5.01,0.0,1013.86,90.0
2019-10-25 09:50,50.63043,-96.9807616666667,10.0,13.3,178,986.02,1.4,92,5.01,0.0,1013.67,90.0
2019-10-25 10:00,50.6304266666667,-96.980765,10.7,14.0,178,985.88,1.4,91,5.00,0.0,1013.52,299.2
2019-10-25 10:10,50.6304283333333,-96.9807683333333,10.7,13.6,180,985.69,1.4,91,4.99,0.0,1013.33,299.2
2019-10-25 10:20,50.6304283333333,-96.9807666666667,11.5,16.1,180,985.56,1.4,90,4.98,0.0,1013.20,299.2
2019-10-25 10:30,50.63043,-96.980765,11.3,15.7,179,985.54,1.5,90,4.97,0.0,1013.18,299.2
2019-10-25 10:40,50.6304316666667,-96.980765,12.0,16.6,177,985.37,1.6,89,4.96,0.0,1013.01,299.2
2019-10-25 10:50,50.6304316666667,-96.980765,12.3,16.0,178,985.26,1.6,88,4.96,0.0,1012.90,299.2
2019-10-25 11:00,50.6304316666667,-96.980765,12.0,16.0,182,985.21,1.7,87,4.96,0.0,1012.84,345.5
2019-10-25 11:10,50.6304316666667,-96.980765,12.6,17.7,182,985.07,1.7,87,4.96,0.0,1012.69,345.5
2019-10-25 11:20,50.63042,-96.980775,13.6,17.4,184,984.86,1.8,86,4.95,0.0,1012.47,345.5
2019-10-25 11:30,50.6304316666667,-96.9807516666667,14.2,19.2,182,984.69,1.9,86,4.94,0.0,1012.30,345.5
2019-10-25 11:40,50.6304333333333,-96.980755,14.7,20.9,182,984.53,1.9,86,4.93,0.0,1012.13,345.5
2019-10-25 11:50,50.630435,-96.980755,15.1,19.3,178,984.32,2.0,85,4.92,0.0,1011.91,345.5
2019-10-25 12:00,50.6304333333333,-96.9807566666667,14.9,19.2,182,984.27,2.2,84,4.91,0.0,1011.85,360.0
2019-10-25 12:10,50.6304283333333,-96.9807783333333,15.0,19.3,184,984.12,2.2,83,4.91,0.0,1011.70,360.0
2019-10-25 12:20,50.6304383333333,-96.9807766666667,14.2,20.3,184,984.08,2.1,84,4.90,0.0,1011.66,360.0
2019-10-25 12:30,50.63044,-96.9807716666667,14.9,19.2,182,983.95,2.1,84,4.90,0.0,1011.51,360.0
2019-10-25 12:40,50.6304416666667,-96.98077,14.4,19.2,182,983.70,2.0,84,4.89,0.0,1011.26,360.0
2019-10-25 12:50,50.63044,-96.9807683333333,13.3,16.9,183,983.52,2.0,84,4.88,0.0,1011.08,360.0
2019-10-25 13:00,50.6304383333333,-96.98077,13.3,18.0,187,983.36,2.0,83,4.88,0.0,1010.90,360.0
2019-10-25 13:10,50.6304383333333,-96.98077,13.1,17.7,187,983.28,2.1,82,4.88,0.0,1010.82,360.0
2019-10-25 13:20,50.63046,-96.98081,12.8,16.6,186,983.18,2.1,82,4.87,0.0,1010.71,360.0
2019-10-25 13:30,50.630435,-96.980785,13.5,18.9,187,983.18,2.1,81,4.87,0.0,1010.71,360.0
2019-10-25 13:40,50.63043,-96.9807683333333,12.3,16.3,188,983.17,2.1,81,4.87,0.0,1010.69,360.0
2019-10-25 13:50,50.6304266666667,-96.98075,12.8,16.6,189,983.06,2.1,81,4.86,0.0,1010.57,360.0
2019-10-25 14:00,50.63043,-96.98075,12.8,16.9,190,983.01,2.1,81,4.86,0.0,1010.51,125.3
2019-10-25 14:10,50.6304366666667,-96.980755,13.5,18.7,189,982.77,2.1,81,4.85,0.0,1010.27,125.3
2019-10-25 14:20,50.6304433333333,-96.9807683333333,13.8,18.3,186,982.46,2.1,81,4.84,0.0,1009.96,125.3
2019-10-25 14:30,50.6304016666667,-96.9807766666667,12.9,16.5,188,982.36,2.2,80,4.84,0.0,1009.86,125.3
2019-10-25 14:40,50.6304,-96.9807683333333,13.1,18.3,191,982.26,2.3,79,4.84,0.0,1009.75,125.3
2019-10-25 14:50,50.6304083333333,-96.9807733333333,12.3,16.4,199,982.28,2.5,78,4.84,0.0,1009.75,125.3
2019-10-25 15:00,50.6304066666667,-96.9807866666667,13.4,19.2,195,982.11,2.8,76,4.84,0.0,1009.56,213.4
2019-10-25 15:10,50.6304116666667,-96.9807783333333,14.1,18.5,198,982.18,3.0,74,4.83,0.0,1009.62,213.4
2019-10-25 15:20,50.6304133333333,-96.980775,12.9,16.9,197,982.01,3.3,73,4.83,0.0,1009.44,213.4
2019-10-25 15:30,50.6304166666667,-96.980775,11.8,15.7,199,981.92,3.8,70,4.83,0.0,1009.32,213.4
2019-10-25 15:40,50.6304366666667,-96.9807733333333,11.9,15.2,200,981.83,4.3,67,4.84,0.0,1009.20,213.4
2019-10-25 15:50,50.6304316666667,-96.98077,12.2,17.8,203,981.65,4.7,64,4.84,0.0,1008.99,213.4
2019-10-25 16:00,50.63043,-96.9807683333333,12.6,19.0,206,981.53,5.0,63,4.83,0.0,1008.85,360.0
2019-10-25 16:10,50.6304316666667,-96.9807716666667,12.8,16.8,206,981.52,5.2,62,4.84,0.0,1008.83,360.0
2019-10-25 16:20,50.6304316666667,-96.9807666666667,12.0,17.6,204,981.47,5.5,61,4.87,0.0,1008.76,360.0
2019-10-25 16:30,50.63043,-96.9807666666667,10.7,15.6,214,981.51,5.8,60,4.87,0.0,1008.78,360.0
2019-10-25 16:40,50.6304316666667,-96.9807666666667,13.4,19.1,212,981.39,5.9,59,4.88,0.0,1008.65,360.0
2019-10-25 16:50,50.6304333333333,-96.9807666666667,12.1,16.5,216,981.43,6.1,58,4.89,0.0,1008.67,360.0
2019-10-25 17:00,50.6304283333333,-96.9807633333333,11.2,15.9,222,981.30,6.3,58,4.91,0.0,1008.51,270.0
2019-10-25 17:10,50.63043,-96.9807616666667,9.3,13.7,218,981.26,6.5,57,4.92,0.0,1008.45,270.0
2019-10-25 17:20,50.63043,-96.9807616666667,9.4,14.4,219,981.47,6.8,57,4.94,0.0,1008.62,270.0
2019-10-25 17:30,50.63043,-96.9807616666667,9.8,14.1,199,981.33,6.8,57,4.96,0.0,1008.46,270.0
2019-10-25 17:40,50.6304316666667,-96.9807633333333,9.9,13.9,201,981.16,7.0,56,4.97,0.0,1008.25,270.0
2019-10-25 17:50,50.6304216666667,-96.9808033333333,9.6,12.9,193,981.14,7.2,56,5.00,0.0,1008.21,270.0
2019-10-25 18:00,50.6304316666667,-96.9807633333333,10.9,13.6,201,981.26,7.4,55,5.02,0.0,1008.30,24.3
2019-10-25 18:10,50.6304366666667,-96.9807716666667,10.1,13.4,196,981.04,7.7,55,5.03,0.0,1008.06,24.3
2019-10-25 18:20,50.630435,-96.9807716666667,10.8,14.6,196,980.96,7.8,54,5.03,0.0,1007.95,24.3
2019-10-25 18:30,50.6304316666667,-96.9807716666667,10.4,14.9,204,980.93,7.8,54,5.05,0.0,1007.91,24.3
2019-10-25 18:40,50.6304316666667,-96.98077,10.3,13.9,203,980.91,8.0,54,5.06,0.0,1007.87,24.3
2019-10-25 18:50,50.63043,-96.9807683333333,9.3,12.2,207,980.85,8.1,54,5.07,0.0,1007.80,24.3
2019-10-25 19:00,50.6304316666667,-96.9807683333333,7.8,11.0,205,980.80,8.3,54,5.09,0.0,1007.72,360.0
2019-10-25 19:10,50.6304333333333,-96.9807683333333,8.1,11.3,192,980.74,8.3,55,5.11,0.0,1007.65,360.0
2019-10-25 19:20,50.6304266666667,-96.9807633333333,9.5,12.5,191,980.60,8.4,54,5.12,0.0,1007.50,360.0
2019-10-25 19:30,50.6304316666667,-96.9807683333333,8.8,11.8,186,980.33,8.4,54,5.13,0.0,1007.22,360.0
2019-10-25 19:40,50.63043,-96.9807683333333,8.7,11.2,187,980.22,8.5,54,5.13,0.0,1007.09,360.0
2019-10-25 19:50,50.6304333333333,-96.9807683333333,9.3,12.5,187,980.12,8.6,54,5.14,0.0,1006.98,360.0
2019-10-25 20:00,50.6304333333333,-96.9807683333333,9.5,12.4,187,979.97,8.7,54,5.16,0.0,1006.79,360.0
2019-10-25 20:10,50.6304333333333,-96.98077,8.2,12.5,193,979.91,8.7,55,5.17,0.0,1006.73,360.0
2019-10-25 20:20,50.6304416666667,-96.9807666666667,10.2,13.8,195,979.88,8.7,56,5.17,0.0,1006.70,360.0
2019-10-25 20:30,50.63043,-96.9807883333333,7.8,11.8,205,979.93,8.6,56,5.18,0.0,1006.74,360.0
2019-10-25 20:40,50.6304283333333,-96.9807816666667,8.1,10.5,198,979.80,8.7,56,5.20,0.0,1006.60,360.0
2019-10-25 20:50,50.6304283333333,-96.98078,7.4,10.4,193,979.67,8.8,57,5.21,0.0,1006.46,360.0
2019-10-25 21:00,50.6304083333333,-96.980745,8.1,11.0,199,979.53,8.9,57,5.22,0.0,1006.30,152.6
2019-10-25 21:10,50.63044,-96.98076,7.6,10.5,190,979.41,9.0,57,5.22,0.0,1006.18,152.6
2019-10-25 21:20,50.6304416666667,-96.9807616666667,7.4,9.6,172,979.20,8.9,58,5.22,0.0,1005.96,152.6
2019-10-25 21:30,50.63044,-96.98076,6.4,7.6,168,979.02,8.8,59,5.23,0.0,1005.77,152.6
2019-10-25 21:40,50.6304183333333,-96.98077,6.8,8.1,169,978.91,8.8,60,5.23,0.0,1005.66,152.6
2019-10-25 21:50,50.6304216666667,-96.9807716666667,8.4,11.2,173,978.78,8.8,62,5.24,0.0,1005.52,152.6
2019-10-25 22:00,50.630425,-96.98077,8.3,11.2,178,978.82,8.8,62,5.24,0.0,1005.56,142.0
2019-10-25 22:10,50.6304216666667,-96.9807666666667,6.8,8.9,177,978.84,8.7,63,5.23,0.0,1005.59,142.0
2019-10-25 22:20,50.63042,-96.9807666666667,7.0,9.3,175,978.81,8.6,64,5.23,0.0,1005.56,142.0
2019-10-25 22:30,50.6304183333333,-96.9807666666667,7.5,9.1,169,978.56,8.6,64,5.23,0.0,1005.30,142.0
2019-10-25 22:40,50.6304166666667,-96.9807666666667,7.7,9.6,171,978.55,8.6,65,5.23,0.0,1005.29,142.0
2019-10-25 22:50,50.6304166666667,-96.9807666666667,6.7,8.1,174,978.72,8.4,67,5.23,0.0,1005.46,142.0
2019-10-25 23:00,50.6304183333333,-96.980765,6.7,8.8,173,978.60,8.5,65,5.24,0.0,1005.33,360.0
2019-10-25 23:10,50.63042,-96.9807666666667,7.2,8.6,172,978.53,8.7,64,5.25,0.0,1005.26,360.0
2019-10-25 23:20,50.6304183333333,-96.9807666666667,7.7,9.0,167,978.43,8.6,64,5.25,0.0,1005.16,360.0
2019-10-25 23:30,50.6304183333333,-96.9807666666667,7.6,9.1,155,978.26,8.1,69,5.24,0.0,1005.01,360.0
2019-10-25 23:40,50.6304233333333,-96.980755,9.7,11.3,157,978.02,7.1,78,5.24,0.0,1004.81,360.0
